When you browse on this site, cookies collect data to enhance your experience and personalize the content and advertising you see.
Visit our Privacy Policy to learn more. By continuing to use the site, you agree to this use of cookies and data.
  • In Austria
  • List of Countries
  • For 7 days
  • Water Temperature
  • Weather Map
  • News
  • Weather Widgets
  • user-avatar
    Login

    Hourly Weather Berlin

    Today, 5 June, Friday

    Time Temperature Precipitation Wind Pressure Humidity
    00:00 +14°C° 0.2 mm 3 mps 740 mmHg 92%
    01:00 +14°C° 0.2 mm 3 mps 740 mmHg 93%
    02:00 +13°C° 0 mm 3 mps 740 mmHg 92%
    03:00 +12°C° 0 mm 4 mps 741 mmHg 90%
    04:00 +12°C° 0 mm 4 mps 741 mmHg 89%
    05:00 +12°C° 0 mm 4 mps 741 mmHg 88%
    06:00 +12°C° 0 mm 4 mps 742 mmHg 86%
    07:00 +12°C° 0 mm 4 mps 742 mmHg 85%
    08:00 +13°C° 0.1 mm 4 mps 742 mmHg 79%
    09:00 +14°C° 0.1 mm 4 mps 743 mmHg 73%
    10:00 +16°C° 0.1 mm 3 mps 743 mmHg 67%
    11:00 +15°C° 0.1 mm 4 mps 743 mmHg 61%
    12:00 +17°C° 0.1 mm 4 mps 743 mmHg 56%
    13:00 +18°C° 0.1 mm 4 mps 743 mmHg 50%
    14:00 +18°C° 0 mm 4 mps 742 mmHg 47%
    15:00 +19°C° 0 mm 4 mps 742 mmHg 43%
    16:00 +20°C° 0 mm 5 mps 742 mmHg 40%
    17:00 +19°C° 0 mm 5 mps 741 mmHg 45%
    18:00 +17°C° 0 mm 5 mps 741 mmHg 50%
    19:00 +16°C° 0 mm 5 mps 740 mmHg 55%
    20:00 +15°C° 1.4 mm 5 mps 741 mmHg 65%
    21:00 +13°C° 1.4 mm 5 mps 741 mmHg 75%
    22:00 +10°C° 1.4 mm 6 mps 741 mmHg 85%
    23:00 +9°C° 0.1 mm 6 mps 742 mmHg 85%

    Tomorrow, 6 June, Saturday

    Time Temperature Precipitation Wind Pressure Humidity
    00:00 +9°C° 0.1 mm 6 mps 742 mmHg 85%
    01:00 +8°C° 0.1 mm 6 mps 743 mmHg 85%
    02:00 +7°C° 0 mm 6 mps 744 mmHg 85%
    03:00 +7°C° 0 mm 5 mps 744 mmHg 85%
    04:00 +7°C° 0 mm 5 mps 745 mmHg 85%
    05:00 +8°C° 0 mm 5 mps 746 mmHg 81%
    06:00 +9°C° 0 mm 5 mps 746 mmHg 76%
    07:00 +10°C° 0 mm 5 mps 746 mmHg 72%
    08:00 +11°C° 0 mm 6 mps 747 mmHg 65%
    09:00 +14°C° 0 mm 6 mps 747 mmHg 57%
    10:00 +15°C° 0 mm 6 mps 747 mmHg 50%
    11:00 +16°C° 0.2 mm 7 mps 747 mmHg 49%
    12:00 +16°C° 0.2 mm 7 mps 747 mmHg 49%
    13:00 +17°C° 0.2 mm 7 mps 747 mmHg 48%
    14:00 +17°C° 0.2 mm 7 mps 747 mmHg 49%
    15:00 +17°C° 0.2 mm 7 mps 747 mmHg 50%
    16:00 +19°C° 0.2 mm 6 mps 747 mmHg 50%
    17:00 +17°C° 0.2 mm 6 mps 748 mmHg 55%
    18:00 +16°C° 0.2 mm 5 mps 748 mmHg 60%
    19:00 +15°C° 0.2 mm 4 mps 748 mmHg 65%
    20:00 +14°C° 0 mm 3 mps 749 mmHg 70%
    21:00 +13°C° 0 mm 3 mps 749 mmHg 76%
    22:00 +12°C° 0 mm 2 mps 750 mmHg 81%
    23:00 +12°C° 0 mm 2 mps 750 mmHg 83%

    Day after tomorrow, 7 June, Sunday

    Time Temperature Precipitation Wind Pressure Humidity
    00:00 +12°C° 0 mm 2 mps 750 mmHg 85%
    01:00 +10°C° 0 mm 2 mps 750 mmHg 87%
    02:00 +10°C° 0 mm 2 mps 750 mmHg 87%
    03:00 +10°C° 0 mm 3 mps 750 mmHg 87%
    04:00 +10°C° 0 mm 3 mps 750 mmHg 87%
    05:00 +12°C° 0 mm 3 mps 751 mmHg 78%
    06:00 +13°C° 0 mm 4 mps 751 mmHg 68%
    07:00 +14°C° 0 mm 4 mps 751 mmHg 59%
    08:00 +15°C° 0 mm 4 mps 751 mmHg 54%
    09:00 +16°C° 0 mm 5 mps 751 mmHg 50%
    10:00 +17°C° 0 mm 5 mps 752 mmHg 45%
    11:00 +19°C° 0 mm 5 mps 752 mmHg 44%
    12:00 +20°C° 0 mm 5 mps 752 mmHg 43%
    13:00 +20°C° 0 mm 5 mps 752 mmHg 43%
    14:00 +20°C° 0 mm 5 mps 752 mmHg 44%
    15:00 +20°C° 0 mm 5 mps 752 mmHg 45%
    16:00 +20°C° 0 mm 5 mps 752 mmHg 47%
    17:00 +20°C° 0 mm 4 mps 753 mmHg 51%
    18:00 +19°C° 0 mm 3 mps 753 mmHg 55%
    19:00 +18°C° 0 mm 2 mps 753 mmHg 59%
    20:00 +17°C° 0 mm 2 mps 754 mmHg 63%
    21:00 +15°C° 0 mm 1 mps 754 mmHg 68%
    22:00 +14°C° 0 mm 1 mps 755 mmHg 73%
    23:00 +14°C° 0 mm 1 mps 755 mmHg 74%

    8 June, Monday

    Time Temperature Precipitation Wind Pressure Humidity
    00:00 +13°C° 0 mm 1 mps 755 mmHg 76%
    01:00 +12°C° 0 mm 0 mps 755 mmHg 77%
    02:00 +12°C° 0 mm 0 mps 755 mmHg 77%
    03:00 +12°C° 0 mm 1 mps 755 mmHg 78%
    04:00 +12°C° 0 mm 1 mps 755 mmHg 79%
    05:00 +14°C° 0 mm 1 mps 755 mmHg 74%
    06:00 +15°C° 0 mm 1 mps 755 mmHg 69%
    07:00 +16°C° 0 mm 1 mps 756 mmHg 64%
    08:00 +19°C° 0 mm 1 mps 756 mmHg 60%
    09:00 +19°C° 0 mm 2 mps 756 mmHg 55%
    10:00 +20°C° 0 mm 3 mps 756 mmHg 51%
    11:00 +21°C° 0 mm 2 mps 756 mmHg 48%
    12:00 +21°C° 0 mm 2 mps 756 mmHg 45%
    13:00 +23°C° 0 mm 2 mps 756 mmHg 42%
    14:00 +21°C° 0 mm 3 mps 756 mmHg 45%
    15:00 +20°C° 0 mm 3 mps 756 mmHg 49%
    16:00 +20°C° 0 mm 4 mps 756 mmHg 52%
    17:00 +18°C° 0 mm 3 mps 756 mmHg 56%
    18:00 +17°C° 0 mm 3 mps 756 mmHg 60%
    19:00 +16°C° 0 mm 3 mps 756 mmHg 64%
    20:00 +16°C° 0 mm 2 mps 756 mmHg 65%
    21:00 +15°C° 0 mm 2 mps 757 mmHg 67%
    22:00 +15°C° 0 mm 2 mps 757 mmHg 69%
    23:00 +15°C° 0 mm 2 mps 757 mmHg 71%

    9 June, Tuesday

    Time Temperature Precipitation Wind Pressure Humidity
    00:00 +15°C° 0 mm 2 mps 757 mmHg 72%
    01:00 +14°C° 0 mm 1 mps 757 mmHg 74%
    02:00 +14°C° 0 mm 2 mps 757 mmHg 74%
    03:00 +14°C° 0 mm 2 mps 757 mmHg 73%
    04:00 +14°C° 0 mm 2 mps 757 mmHg 73%
    05:00 +14°C° 0 mm 2 mps 757 mmHg 72%
    06:00 +15°C° 0 mm 2 mps 758 mmHg 71%
    07:00 +15°C° 0 mm 2 mps 758 mmHg 70%
    08:00 +16°C° 0 mm 2 mps 758 mmHg 66%
    09:00 +17°C° 0 mm 2 mps 758 mmHg 63%
    10:00 +18°C° 0 mm 2 mps 758 mmHg 60%
    11:00 +18°C° 0 mm 2 mps 758 mmHg 57%
    12:00 +19°C° 0 mm 2 mps 758 mmHg 54%
    13:00 +20°C° 0 mm 2 mps 758 mmHg 51%
    14:00 +20°C° 0 mm 2 mps 758 mmHg 52%
    15:00 +21°C° 0 mm 1 mps 758 mmHg 53%
    16:00 +21°C° 0 mm 1 mps 758 mmHg 54%
    17:00 +20°C° 0 mm 1 mps 758 mmHg 57%
    18:00 +19°C° 0 mm 2 mps 758 mmHg 60%
    19:00 +18°C° 0 mm 2 mps 758 mmHg 63%
    20:00 +17°C° 0 mm 2 mps 758 mmHg 67%
    21:00 +16°C° 0 mm 2 mps 758 mmHg 70%
    22:00 +15°C° 0 mm 2 mps 759 mmHg 74%
    23:00 +15°C° 0 mm 2 mps 759 mmHg 74%

    10 June, Wednesday

    Time Temperature Precipitation Wind Pressure Humidity
    00:00 +15°C° 0 mm 2 mps 759 mmHg 75%
    01:00 +15°C° 0 mm 2 mps 759 mmHg 75%
    02:00 +15°C° 0.2 mm 2 mps 759 mmHg 77%
    03:00 +14°C° 0.2 mm 2 mps 758 mmHg 80%
    04:00 +14°C° 0.2 mm 2 mps 758 mmHg 82%
    05:00 +14°C° 0.6 mm 2 mps 759 mmHg 84%
    06:00 +14°C° 0.6 mm 2 mps 759 mmHg 86%
    07:00 +14°C° 0.6 mm 2 mps 759 mmHg 88%
    08:00 +14°C° 0.7 mm 2 mps 759 mmHg 89%
    09:00 +13°C° 0.7 mm 3 mps 759 mmHg 89%
    10:00 +13°C° 0.7 mm 3 mps 759 mmHg 89%
    11:00 +14°C° 0.1 mm 3 mps 759 mmHg 87%
    12:00 +15°C° 0.1 mm 2 mps 759 mmHg 84%
    13:00 +16°C° 0.1 mm 2 mps 760 mmHg 82%
    14:00 +16°C° 0 mm 2 mps 759 mmHg 81%
    15:00 +16°C° 0 mm 2 mps 759 mmHg 80%
    16:00 +17°C° 0 mm 2 mps 759 mmHg 78%
    17:00 +17°C° 0 mm 2 mps 759 mmHg 80%
    18:00 +16°C° 0 mm 2 mps 760 mmHg 82%
    19:00 +16°C° 0 mm 2 mps 760 mmHg 83%
    20:00 +16°C° 0 mm 1 mps 760 mmHg 87%
    21:00 +15°C° 0 mm 1 mps 760 mmHg 90%
    22:00 +14°C° 0 mm 1 mps 761 mmHg 93%
    23:00 +14°C° 0 mm 1 mps 760 mmHg 93%
    Show more